Regional Weather Roundup
Issued by NWS

Home | Current Version | Previous Version | Text Only | Print | Product List | Glossary On
Versions: 1 2 3 4 5 6 7 8 9 10 11 12 13 14 15 16 17 18 19 20 21 22 23 24 25 26 27 28 29 30 31 32 33 34 35 36 37 38 39 40 41 42 43 44 45 46 47 48 49 50
000
ASUS44 KFWD 240815
RWRTX
NORTH TEXAS HOURLY WEATHER ROUNDUP
NATIONAL WEATHER SERVICE FORT WORTH TX
300 AM CDT SUN SEP 24 2017

NOTE: "FAIR" INDICATES FEW OR NO CLOUDS BELOW 12,000 FEET WITH NO
SIGNIFICANT WEATHER AND/OR OBSTRUCTIONS TO VISIBILITY.

TXZ118-119-240900-
DALLAS/FORT WORTH METROPLEX

CITY           SKY/WX    TMP DP  RH WIND       PRES   REMARKS
DFW AIRPORT    PTCLDY    78  68  71 S9        29.88R
DALLAS LOVE    PTCLDY    79  68  69 S10       29.89S
FTW MEACHAM    CLEAR     78  68  71 SE9       29.89R
DAL-EXECUTIVE  CLEAR     76  68  76 S6        29.89S
FTW-ALLIANCE   PTCLDY    76  67  73 S8        29.89S
FTW-NAS-JRB    CLEAR     79  66  64 S10       29.89S
FTW-SPINKS     CLEAR     76  66  72 S8        29.91R
ARLINGTON      CLEAR     77  69  76 SE9       29.89S
GRAND PRAIRIE  CLEAR     77  66  68 SE5       29.91S
ADDISON        PTCLDY    78  68  72 S7        29.91S
MESQUITE       CLEAR     71  67  87 SE5       29.90F
LANCASTER      CLEAR     73  66  77 CALM      29.91S
$$

TXZ091>094-102>105-117-120-121-131>134-240900-
NORTH CENTRAL TEXAS

CITY           SKY/WX    TMP DP  RH WIND       PRES   REMARKS
SHRMAN/DENISON CLEAR     75  67  76 SE7       29.92R
GAINESVILLE    CLEAR     72  66  82 SE3       29.92S
BOWIE          CLEAR     70  65  83 SE3       29.90S
BRIDGEPORT     CLEAR     75  64  68 S8        29.91R
DECATUR        CLEAR     74  65  71 SE6       29.90R
DENTON         CLEAR     74  67  78 SE5       29.89S
MCKINNEY       PTCLDY    74  70  87 S5        29.90R
BONHAM         CLEAR     71  67  88 SE6       29.92R
GREENVILLE     CLEAR     73  70  88 CALM      29.91S
ROCKWALL       CLEAR     75  68  79 S3        29.90S
TERRELL        CLEAR     74  67  78 SE3       29.90S
WAXAHACHIE     CLEAR     73  67  80 S3        29.92S
CLEBURNE       CLEAR     73  70  88 S7        29.92S
GRANBURY       CLEAR     76  67  73 SE5       29.90S
$$

TXZ083>090-098>101-113>116-127>130-139>142-154-155-240900-
WESTERN NORTH TEXAS

CITY           SKY/WX    TMP DP  RH WIND       PRES   REMARKS
WICHITA FALLS  PTCLDY    70  63  78 SE9       29.87S
WF-KICKAPOO    PTCLDY    73  65  75 SE7       29.90S
VERNON         MOCLDY    75  57  53 SE9       29.87F
ABILENE        PTCLDY    73  65  75 S16       29.88R
ABILENE-DYESS  MOCLDY    75  66  72 S15G23    29.86R
GRAHAM         CLOUDY    76  65  70 SE7       29.86S
BRECKENRIDGE   MOCLDY    77  64  65 SE14G22   29.87S
CISCO          PTCLDY    73  66  78 SE12G17   29.90S
EASTLAND       CLOUDY    73  65  77 SE9       29.89F
RANGER         CLOUDY    73  66  77 S8        29.90S
MINERAL WELLS  CLEAR     72  64  76 SE8       29.88S
STEPHENVILLE   PTCLDY    74  66  77 SE6       29.93S
COMANCHE       CLEAR     73  67  82 S6        29.91R
COLEMAN        CLEAR     74  65  73 S10       29.89S
$$

TXZ143>147-156>162-174-175-240900-
CENTRAL TEXAS

CITY           SKY/WX    TMP DP  RH WIND       PRES   REMARKS
WACO           CLEAR     77  70  79 S12       29.89S
WACO-MCGREGOR  CLEAR     74  69  85 S8        29.90S
HILLSBORO      CLEAR     76  68  76 SE9       29.90F
CORSICANA      CLEAR     73  69  87 SE5       29.91R
MEXIA          CLEAR     72  69  90 S3        29.90S
HEARNE         PTCLDY   N/A N/A N/A CALM      29.91S
CAMERON        CLEAR     73  69  90 CALM      29.90S
TEMPLE         CLEAR     73  70  90 S7        29.91R
KILLEEN        PTCLDY    72  69  89 SE8       29.89F
FORT HOOD      CLOUDY    73  69  89 S7        29.87F
GATESVILLE     CLEAR     75  70  83 SE6       29.92S
HAMILTON       CLEAR     73  67  81 S8        29.92S
LAMPASAS       CLEAR     76  73  91 S6        29.90S
$$

TXZ095>097-106>112-122>126-135>138-148>153-164>167-240900-
EAST TEXAS

CITY           SKY/WX    TMP DP  RH WIND       PRES   REMARKS
PARIS          CLEAR     73  68  84 SE5       29.92S
SULPHUR SPRNGS CLEAR     72  69  89 CALM      29.93F
MOUNT PLEASANT CLEAR     70  69  98 CALM      29.93R
GILMER         CLEAR     71  69  93 CALM      29.92R
MINEOLA        CLEAR     70  68  94 CALM      29.91S
TYLER          CLEAR     73  72  96 CALM      29.91S
LONGVIEW       CLEAR     73  71  93 CALM      29.91R
MARSHALL       CLEAR     70  68  93 CALM      29.94R
ATHENS         CLEAR     70  70 100 CALM      29.90S
PALESTINE      CLEAR     74  71  90 SE3       29.92S
JACKSONVILLE   CLEAR     74  71  92 S6        29.94S
HENDERSON      CLEAR     70  70  98 CALM      29.93R FOG
CENTER         SUNNY     74  72  95 CALM      29.93R
NACOGDOCHES    CLEAR     70  69  97 CALM      29.92S FOG
LUFKIN         CLEAR     72  71  97 SE3       29.91S
$$

SUPPLEMENTAL OBSERVATIONS (NWS FORT WORTH AREA)

CITY           SKY/WX    TMP DP  RH WIND       PRES   REMARKS
DENISON DAM      N/A     73  66  78 E3          N/A
CADDO GRASSLND   N/A     73  66  78 S3          N/A
PAT MAYSE LAKE   N/A     75  70  83 SE7         N/A
GREENVILLE       N/A     72  68  88 S1          N/A
CEDAR HILL       N/A     77  66  69 SE8         N/A
LBJ GRASSLAND    N/A     75  63  64 SE6         N/A
POSSUM KINGDOM   N/A     75  64  69 SE12        N/A
GRANBURY         N/A     75  66  73 SE6         N/A
COMANCHE         N/A     73  66  78 S8          N/A
MCGREGOR         N/A     73  68  83 S6          N/A
TEMPLE           N/A     72  68  88 SE1         N/A
LAKE LIMESTONE   N/A     70  66  88 S2          N/A
ATHENS           N/A     75  70  83 S3          N/A
$$

SUPPLEMENTAL OBSERVATIONS (NWS NORMAN AREA)

CITY           SKY/WX    TMP DP  RH WIND       PRES   REMARKS
GOODLETT         N/A     76  61  59 SE16      29.86F
ODELL            N/A     74  62  67 SE10      29.89S
CROWELL          N/A     76  63  64 S13       29.88S
KNOX CITY        N/A     77  61  58 SE13      29.87S
SEYMOUR          N/A     74  61  62 SE9       29.88S
MILLERS CREEK    N/A     75  63  64 SE10        N/A
$$

SUPPLEMENTAL OBSERVATIONS (NWS SAN ANGELO AREA)

CITY           SKY/WX    TMP DP  RH WIND       PRES   REMARKS
HASKELL          N/A     76  61  60 S8        29.88R
THROCKMORTON     N/A     76  66  70 SE10      29.88S
STAMFORD         N/A     77  65  67 S14       29.89R
CLYDE            N/A     73  66  77 SE10      29.91R
HAMBY            N/A     75  64  69 S14         N/A
IVIE RESERVOIR   N/A     73  64  73 SE13        N/A
COLORADO BEND    N/A     73  68  83 S10G21      N/A
$$

SUPPLEMENTAL OBSERVATIONS (NWS SHREVEPORT AREA)

CITY           SKY/WX    TMP DP  RH WIND       PRES   REMARKS
CLARKSVILLE      N/A     73  66  78 SE1         N/A
TEXARKANA        N/A     68  66  94 CALM        N/A
LINDEN           N/A     70  64  83 CALM        N/A
CADDO LAKE       N/A     66  64  94 CALM        N/A
GILMER           N/A     72  68  88 CALM        N/A
HENDERSON        N/A     72  70  94 SE3         N/A
LUFKIN           N/A     72  70  94 MISG        N/A
N SABINE NF      N/A     70  68  94 MISG        N/A
S SABINE NF      N/A     72  70  94 W1          N/A
$$

SUPPLEMENTAL OBSERVATIONS ARE A COLLECTION OF AUTOMATED INSTRUMENTS
THAT ARE MAINTAINED BY A VARIETY OF FEDERAL AND STATE AGENCIES.
CERTAIN ELEMENTS...SUCH AS HUMIDITY VALUES AND SUSTAINED WIND
SPEEDS...MAY BE APPROXIMATED.




USA.gov is the U.S. government's official web portal to all federal, state and local government web resources and services.